Weather in Orsha

Russia / Mari El Republic     56°54′26″N   48°30′26″E
temp.,
°C
wind,
m/s
gust,
m/s
humid.,
%
clouds,
%
prec.,
mm/h
press.,
hPa
HPBL,
m
1 march, mon
mon100:00−20n339957 0.0 101724
03:00−21n339928 0.0 101927
06:00−22n23990 0.0 102020
09:00−18wnw11940 0.0 102169
12:00−14w349046 0.0 1020295
15:00−11sw469372 0.0 1018366
18:00−11sw51096100 0.0 1015293
21:00−10ssw61195100 0.1 1012321
2 march, tue
tue200:00−6sw81395100 1.6 1007541
03:00−4sw81496100 3.2 1003560
06:00−2sw71397100 1.5 999510
09:000w61198100 3.4 998626
12:000w61099100 1.1 996608
15:000wnw71193100 2.7 996730
18:00−2w51191100 0.1 997399
21:00−4wnw6139194 0.3 998408
3 march, wed
wed300:00−6wnw5119471 0.0 998246
03:00−7wnw5109669 0.0 999271
06:00−7wnw61195100 0.1 999389
09:00−6nw6119395 0.3 1001569
12:00−5nw6989100 0.1 1002714
15:00−5wnw6990100 0.3 1003871
18:00−8wnw41094100 0.1 1004391
21:00−8w51291100 0.2 1005427
4 march, thu
thu400:00−9wsw5109697 0.1 1003276
03:00−9wsw499799 0.4 1002210
06:00−10w469897 0.1 1001104
09:00−7sw589698 0.1 1000304
12:00−3ssw71193100 0.3 996673
15:00−2sw81396100 1.6 993875
18:00−1wsw81496100 1.4 990816
21:00−1wsw71392100 1.6 989786
5 march, fri
fri500:00−4w51386100 1.1 988604
03:00−9w8169099 1.1 990687
06:00−9nw81590100 0.3 996751
09:00−10nw7128995 0.3 1001570
12:00−8wnw698896 0.0 1004708
15:00−8wnw6108375 0.0 1007795
18:00−11w349564 0.0 100971
21:00−11wnw359682 0.3 1012108